"Sample Date","Sample Time","Sensor Name","Sample Value","Units","Flow Rate","Sample Interval","Sample Volume","Laser Status","Number Channels","Micron Size 0","Counts/Channel 0","Micron Size 1","Counts/Channel 1","Micron Size 2","Counts/Channel 2","Micron Size 3","Counts/Channel 3","Micron Size 4","Counts/Channel 4","Micron Size 5","Counts/Channel 5","Micron Size 6","Counts/Channel 6","Micron Size 7","Counts/Channel 7","Micron Size 8","Counts/Channel 8","Micron Size 9","Counts/Channel 9","Micron Size 10","Counts/Channel 10","Micron Size 11","Counts/Channel 11","Micron Size 12","Counts/Channel 12","Micron Size 13","Counts/Channel 13","Micron Size 14","Counts/Channel 14","Micron Size 15","Counts/Channel 15","Micron Size 16","Counts/Channel 16","Micron Size 17","Counts/Channel 17","Micron Size 18","Counts/Channel 18","Micron Size 19","Counts/Channel 19","Micron Size 20","Counts/Channel 20","Micron Size 21","Counts/Channel 21","Micron Size 22","Counts/Channel 22","Micron Size 23","Counts/Channel 23","Micron Size 24","Counts/Channel 24","Micron Size 25","Counts/Channel 25","Micron Size 26","Counts/Channel 26","Micron Size 27","Counts/Channel 27","Micron Size 28","Counts/Channel 28","Micron Size 29","Counts/Channel 29","Micron Size 30","Counts/Channel 30","Micron Size 31","Counts/Channel 31"
"07/04/06","03:00:02","AMMA06",68296.000,"cc",28318.609,6.00,2831.861,1,6,0.100,31593.000,0.200,29460.000,0.300,4939.000,0.500,1381.000,1.000,922.000,5.000,1.000
"07/04/06","03:00:08","AMMA06",68288.000,"cc",28301.791,6.00,2830.179,1,6,0.100,31611.000,0.200,29501.000,0.300,4793.000,0.500,1388.000,1.000,993.000,5.000,2.000
"07/04/06","03:00:14","AMMA06",68239.000,"cc",28297.963,6.00,2829.796,1,6,0.100,31912.000,0.200,29147.000,0.300,4827.000,0.500,1430.000,1.000,923.000,5.000,0
"07/04/06","03:00:20","AMMA06",68459.000,"cc",28345.938,6.00,2834.594,1,6,0.100,31649.000,0.200,29514.000,0.300,4917.000,0.500,1388.000,1.000,991.000,5.000,0
"07/04/06","03:00:26","AMMA06",68413.000,"cc",28336.781,6.00,2833.678,1,6,0.100,31935.000,0.200,29250.000,0.300,4855.000,0.500,1448.000,1.000,925.000,5.000,0
"07/04/06","03:00:32","AMMA06",68133.000,"cc",28339.672,6.00,2833.967,1,6,0.100,31775.000,0.200,29302.000,0.300,4762.000,0.500,1390.000,1.000,904.000,5.000,0
"07/04/06","03:00:38","AMMA06",67601.000,"cc",28291.920,6.00,2829.192,1,6,0.100,31185.000,0.200,29196.000,0.300,4835.000,0.500,1452.000,1.000,933.000,5.000,0
"07/04/06","03:00:44","AMMA06",68551.000,"cc",28320.850,6.00,2832.085,1,6,0.100,32000.000,0.200,29424.000,0.300,4770.000,0.500,1434.000,1.000,923.000,5.000,0
"07/04/06","03:00:50","AMMA06",69199.000,"cc",28252.020,6.00,2825.202,1,6,0.100,32048.000,0.200,29698.000,0.300,5027.000,0.500,1461.000,1.000,964.000,5.000,1.000
"07/04/06","03:00:56","AMMA06",68571.000,"cc",28326.943,6.00,2832.695,1,6,0.100,31767.000,0.200,29652.000,0.300,4753.000,0.500,1472.000,1.000,925.000,5.000,2.000
"07/04/06","03:01:02","AMMA06",68432.000,"cc",28369.193,6.00,2836.919,1,6,0.100,31929.000,0.200,29206.000,0.300,4975.000,0.500,1406.000,1.000,916.000,5.000,0
"07/04/06","03:01:08","AMMA06",68477.000,"cc",28326.898,6.00,2832.690,1,6,0.100,31889.000,0.200,29369.000,0.300,4925.000,0.500,1410.000,1.000,882.000,5.000,2.000
"07/04/06","03:01:14","AMMA06",68063.000,"cc",28285.369,6.00,2828.537,1,6,0.100,31560.000,0.200,29233.000,0.300,4839.000,0.500,1475.000,1.000,956.000,5.000,0
"07/04/06","03:01:20","AMMA06",68145.000,"cc",28291.400,6.00,2829.140,1,6,0.100,31684.000,0.200,29209.000,0.300,4866.000,0.500,1386.000,1.000,999.000,5.000,1.000
"07/04/06","03:01:26","AMMA06",68262.000,"cc",28324.740,6.00,2832.474,1,6,0.100,31892.000,0.200,29170.000,0.300,4857.000,0.500,1451.000,1.000,891.000,5.000,1.000
"07/04/06","03:01:32","AMMA06",68974.000,"cc",28264.773,6.00,2826.478,1,6,0.100,31941.000,0.200,29740.000,0.300,4856.000,0.500,1430.000,1.000,1007.000,5.000,0
"07/04/06","03:01:38","AMMA06",68467.000,"cc",28338.688,6.00,2833.869,1,6,0.100,31707.000,0.200,29344.000,0.300,5013.000,0.500,1446.000,1.000,957.000,5.000,0
"07/04/06","03:01:44","AMMA06",68915.000,"cc",28390.055,6.00,2839.006,1,6,0.100,31868.000,0.200,29779.000,0.300,4869.000,0.500,1443.000,1.000,956.000,5.000,0
"07/04/06","03:01:50","AMMA06",68341.000,"cc",28291.258,6.00,2829.126,1,6,0.100,31603.000,0.200,29329.000,0.300,4913.000,0.500,1482.000,1.000,1013.000,5.000,1.000
"07/04/06","03:01:56","AMMA06",68537.000,"cc",28343.035,6.00,2834.304,1,6,0.100,31832.000,0.200,29535.000,0.300,4822.000,0.500,1413.000,1.000,935.000,5.000,0
"07/04/06","03:02:02","AMMA06",68223.000,"cc",28349.525,6.00,2834.953,1,6,0.100,31872.000,0.200,29108.000,0.300,4976.000,0.500,1372.000,1.000,895.000,5.000,0
"07/04/06","03:02:08","AMMA06",68343.000,"cc",28289.688,6.00,2828.969,1,6,0.100,31731.000,0.200,29347.000,0.300,4885.000,0.500,1399.000,1.000,981.000,5.000,0
"07/04/06","03:02:14","AMMA06",68565.000,"cc",28309.434,6.00,2830.944,1,6,0.100,31743.000,0.200,29539.000,0.300,4913.000,0.500,1465.000,1.000,905.000,5.000,0
"07/04/06","03:02:20","AMMA06",68525.000,"cc",28330.371,6.00,2833.037,1,6,0.100,31535.000,0.200,29687.000,0.300,4942.000,0.500,1507.000,1.000,854.000,5.000,0
"07/04/06","03:02:26","AMMA06",68484.000,"cc",28303.008,6.00,2830.301,1,6,0.100,31666.000,0.200,29458.000,0.300,5005.000,0.500,1463.000,1.000,890.000,5.000,2.000
"07/04/06","03:02:32","AMMA06",68244.000,"cc",28307.777,6.00,2830.778,1,6,0.100,31330.000,0.200,29572.000,0.300,4952.000,0.500,1388.000,1.000,1001.000,5.000,1.000
"07/04/06","03:02:38","AMMA06",67596.000,"cc",28340.844,6.00,2834.085,1,6,0.100,31081.000,0.200,29163.000,0.300,4967.000,0.500,1456.000,1.000,928.000,5.000,1.000
"07/04/06","03:02:44","AMMA06",68017.000,"cc",28322.145,6.00,2832.215,1,6,0.100,31354.000,0.200,29302.000,0.300,5050.000,0.500,1377.000,1.000,932.000,5.000,2.000
"07/04/06","03:02:50","AMMA06",68829.000,"cc",28277.518,6.00,2827.752,1,6,0.100,31648.000,0.200,29627.000,0.300,5087.000,0.500,1446.000,1.000,1021.000,5.000,0
"07/04/06","03:02:56","AMMA06",68552.000,"cc",28338.543,6.00,2833.855,1,6,0.100,31802.000,0.200,29507.000,0.300,4964.000,0.500,1365.000,1.000,913.000,5.000,1.000
"07/04/06","03:03:02","AMMA06",68185.000,"cc",28340.023,6.00,2834.002,1,6,0.100,31279.000,0.200,29497.000,0.300,5051.000,0.500,1425.000,1.000,931.000,5.000,2.000
"07/04/06","03:03:08","AMMA06",68293.000,"cc",28271.988,6.00,2827.199,1,6,0.100,31482.000,0.200,29384.000,0.300,5108.000,0.500,1409.000,1.000,907.000,5.000,3.000
"07/04/06","03:03:14","AMMA06",68467.000,"cc",28275.961,6.00,2827.596,1,6,0.100,31513.000,0.200,29500.000,0.300,5120.000,0.500,1409.000,1.000,923.000,5.000,2.000
"07/04/06","03:03:20","AMMA06",68592.000,"cc",28314.912,6.00,2831.492,1,6,0.100,31543.000,0.200,29493.000,0.300,5098.000,0.500,1490.000,1.000,968.000,5.000,0
"07/04/06","03:03:26","AMMA06",68746.000,"cc",28323.236,6.00,2832.324,1,6,0.100,31654.000,0.200,29664.000,0.300,5102.000,0.500,1383.000,1.000,943.000,5.000,0
"07/04/06","03:03:32","AMMA06",68311.000,"cc",28309.752,6.00,2830.975,1,6,0.100,31278.000,0.200,29601.000,0.300,4974.000,0.500,1507.000,1.000,950.000,5.000,1.000
"07/04/06","03:03:38","AMMA06",69032.000,"cc",28370.844,6.00,2837.085,1,6,0.100,31517.000,0.200,29920.000,0.300,5159.000,0.500,1457.000,1.000,979.000,5.000,0
"07/04/06","03:03:44","AMMA06",68514.000,"cc",28337.709,6.00,2833.771,1,6,0.100,31516.000,0.200,29633.000,0.300,5031.000,0.500,1425.000,1.000,908.000,5.000,1.000
"07/04/06","03:03:50","AMMA06",68369.000,"cc",28297.762,6.00,2829.776,1,6,0.100,31286.000,0.200,29619.000,0.300,5157.000,0.500,1389.000,1.000,917.000,5.000,1.000
"07/04/06","03:03:56","AMMA06",68547.000,"cc",28280.811,6.00,2828.081,1,6,0.100,31638.000,0.200,29500.000,0.300,5005.000,0.500,1408.000,1.000,992.000,5.000,4.000
"07/04/06","03:04:02","AMMA06",68339.000,"cc",28380.982,6.00,2838.098,1,6,0.100,31244.000,0.200,29508.000,0.300,5131.000,0.500,1476.000,1.000,979.000,5.000,1.000
"07/04/06","03:04:08","AMMA06",68367.000,"cc",28315.213,6.00,2831.522,1,6,0.100,31330.000,0.200,29666.000,0.300,4971.000,0.500,1438.000,1.000,961.000,5.000,1.000
"07/04/06","03:04:14","AMMA06",68909.000,"cc",28309.760,6.00,2830.976,1,6,0.100,31653.000,0.200,29824.000,0.300,5053.000,0.500,1426.000,1.000,953.000,5.000,0
"07/04/06","03:04:20","AMMA06",68599.000,"cc",28332.246,6.00,2833.225,1,6,0.100,31539.000,0.200,29520.000,0.300,5079.000,0.500,1458.000,1.000,1003.000,5.000,0
"07/04/06","03:04:26","AMMA06",68418.000,"cc",28263.033,6.00,2826.304,1,6,0.100,31408.000,0.200,29579.000,0.300,5140.000,0.500,1314.000,1.000,974.000,5.000,3.000
"07/04/06","03:04:32","AMMA06",67997.000,"cc",28318.754,6.00,2831.876,1,6,0.100,31280.000,0.200,29273.000,0.300,5029.000,0.500,1452.000,1.000,962.000,5.000,1.000
"07/04/06","03:04:38","AMMA06",68589.000,"cc",28318.777,6.00,2831.878,1,6,0.100,31119.000,0.200,29832.000,0.300,5173.000,0.500,1460.000,1.000,1004.000,5.000,1.000
"07/04/06","03:04:44","AMMA06",68663.000,"cc",28355.387,6.00,2835.539,1,6,0.100,31371.000,0.200,29794.000,0.300,5059.000,0.500,1394.000,1.000,1044.000,5.000,1.000
"07/04/06","03:04:50","AMMA06",68742.000,"cc",28276.248,6.00,2827.625,1,6,0.100,31413.000,0.200,29808.000,0.300,5153.000,0.500,1473.000,1.000,895.000,5.000,0
"07/04/06","03:04:56","AMMA06",68496.000,"cc",28391.137,6.00,2839.114,1,6,0.100,31101.000,0.200,29828.000,0.300,5221.000,0.500,1382.000,1.000,963.000,5.000,1.000
"07/04/06","03:05:02","AMMA06",68544.000,"cc",28282.643,6.00,2828.264,1,6,0.100,31029.000,0.200,29943.000,0.300,5199.000,0.500,1400.000,1.000,973.000,5.000,0
"07/04/06","03:05:08","AMMA06",68403.000,"cc",28296.873,6.00,2829.688,1,6,0.100,30982.000,0.200,29976.000,0.300,5118.000,0.500,1416.000,1.000,911.000,5.000,0
"07/04/06","03:05:14","AMMA06",68672.000,"cc",28310.166,6.00,2831.017,1,6,0.100,31424.000,0.200,29741.000,0.300,5224.000,0.500,1396.000,1.000,886.000,5.000,1.000
"07/04/06","03:05:20","AMMA06",68737.000,"cc",28282.525,6.00,2828.253,1,6,0.100,31334.000,0.200,29838.000,0.300,5148.000,0.500,1384.000,1.000,1033.000,5.000,0
"07/04/06","03:05:26","AMMA06",68534.000,"cc",28295.680,6.00,2829.568,1,6,0.100,31333.000,0.200,29784.000,0.300,5092.000,0.500,1385.000,1.000,938.000,5.000,2.000
"07/04/06","03:05:32","AMMA06",68564.000,"cc",28335.430,6.00,2833.543,1,6,0.100,31413.000,0.200,29658.000,0.300,5031.000,0.500,1452.000,1.000,1009.000,5.000,1.000
"07/04/06","03:05:38","AMMA06",68568.000,"cc",28317.145,6.00,2831.715,1,6,0.100,31565.000,0.200,29606.000,0.300,5079.000,0.500,1383.000,1.000,935.000,5.000,0
"07/04/06","03:05:44","AMMA06",68411.000,"cc",28331.254,6.00,2833.126,1,6,0.100,31197.000,0.200,29759.000,0.300,5022.000,0.500,1461.000,1.000,972.000,5.000,0
"07/04/06","03:05:50","AMMA06",69024.000,"cc",28367.881,6.00,2836.788,1,6,0.100,31691.000,0.200,29985.000,0.300,4953.000,0.500,1432.000,1.000,963.000,5.000,0
"07/04/06","03:05:56","AMMA06",68977.000,"cc",28289.326,6.00,2828.933,1,6,0.100,31643.000,0.200,29783.000,0.300,5111.000,0.500,1464.000,1.000,974.000,5.000,2.000
"07/04/06","03:06:02","AMMA06",68452.000,"cc",28282.930,6.00,2828.293,1,6,0.100,31527.000,0.200,29461.000,0.300,4998.000,0.500,1466.000,1.000,1000.000,5.000,0
"07/04/06","03:06:08","AMMA06",68695.000,"cc",28310.273,6.00,2831.028,1,6,0.100,31380.000,0.200,29849.000,0.300,5082.000,0.500,1502.000,1.000,880.000,5.000,2.000
"07/04/06","03:06:14","AMMA06",69300.000,"cc",28285.924,6.00,2828.593,1,6,0.100,31997.000,0.200,29890.000,0.300,4992.000,0.500,1441.000,1.000,976.000,5.000,4.000
"07/04/06","03:06:20","AMMA06",68613.000,"cc",28326.377,6.00,2832.638,1,6,0.100,31727.000,0.200,29509.000,0.300,5029.000,0.500,1374.000,1.000,973.000,5.000,1.000
"07/04/06","03:06:26","AMMA06",68762.000,"cc",28362.533,6.00,2836.253,1,6,0.100,31840.000,0.200,29600.000,0.300,4994.000,0.500,1365.000,1.000,961.000,5.000,2.000
"07/04/06","03:06:32","AMMA06",68843.000,"cc",28267.367,6.00,2826.737,1,6,0.100,31787.000,0.200,29706.000,0.300,4942.000,0.500,1430.000,1.000,975.000,5.000,3.000
"07/04/06","03:06:38","AMMA06",69050.000,"cc",28322.934,6.00,2832.294,1,6,0.100,31740.000,0.200,29854.000,0.300,5058.000,0.500,1428.000,1.000,970.000,5.000,0
"07/04/06","03:06:44","AMMA06",69388.000,"cc",28289.264,6.00,2828.927,1,6,0.100,31906.000,0.200,30004.000,0.300,5071.000,0.500,1408.000,1.000,999.000,5.000,0
"07/04/06","03:06:50","AMMA06",69367.000,"cc",28400.244,6.00,2840.025,1,6,0.100,32293.000,0.200,29758.000,0.300,4923.000,0.500,1404.000,1.000,989.000,5.000,0
"07/04/06","03:06:56","AMMA06",68899.000,"cc",28342.438,6.00,2834.244,1,6,0.100,31878.000,0.200,29737.000,0.300,4848.000,0.500,1459.000,1.000,977.000,5.000,0
"07/04/06","03:07:02","AMMA06",68458.000,"cc",28298.682,6.00,2829.868,1,6,0.100,31543.000,0.200,29655.000,0.300,4816.000,0.500,1453.000,1.000,991.000,5.000,0
"07/04/06","03:07:08","AMMA06",69081.000,"cc",28335.303,6.00,2833.531,1,6,0.100,31902.000,0.200,29917.000,0.300,4895.000,0.500,1402.000,1.000,963.000,5.000,2.000
"07/04/06","03:07:14","AMMA06",69387.000,"cc",28309.645,6.00,2830.965,1,6,0.100,32126.000,0.200,29851.000,0.300,4914.000,0.500,1478.000,1.000,1018.000,5.000,0
"07/04/06","03:07:20","AMMA06",69013.000,"cc",28274.897,6.00,2827.490,1,6,0.100,32100.000,0.200,29599.000,0.300,4845.000,0.500,1519.000,1.000,949.000,5.000,1.000
"07/04/06","03:07:26","AMMA06",69102.000,"cc",28315.352,6.00,2831.535,1,6,0.100,32139.000,0.200,29764.000,0.300,4847.000,0.500,1421.000,1.000,930.000,5.000,1.000
"07/04/06","03:07:32","AMMA06",69021.000,"cc",28337.367,6.00,2833.737,1,6,0.100,32218.000,0.200,29609.000,0.300,4849.000,0.500,1434.000,1.000,911.000,5.000,0
"07/04/06","03:07:38","AMMA06",68925.000,"cc",28318.022,6.00,2831.802,1,6,0.100,31927.000,0.200,29630.000,0.300,4973.000,0.500,1419.000,1.000,976.000,5.000,0
"07/04/06","03:07:44","AMMA06",68424.000,"cc",28259.363,6.00,2825.937,1,6,0.100,31675.000,0.200,29292.000,0.300,4992.000,0.500,1440.000,1.000,1019.000,5.000,6.000
"07/04/06","03:07:50","AMMA06",69233.000,"cc",28329.643,6.00,2832.964,1,6,0.100,32035.000,0.200,29912.000,0.300,4846.000,0.500,1464.000,1.000,975.000,5.000,1.000
"07/04/06","03:07:56","AMMA06",68619.000,"cc",28325.201,6.00,2832.520,1,6,0.100,31885.000,0.200,29547.000,0.300,4791.000,0.500,1433.000,1.000,961.000,5.000,2.000
"07/04/06","03:08:02","AMMA06",68879.000,"cc",28324.316,6.00,2832.432,1,6,0.100,31862.000,0.200,29869.000,0.300,4779.000,0.500,1428.000,1.000,939.000,5.000,2.000
"07/04/06","03:08:08","AMMA06",69396.000,"cc",28348.746,6.00,2834.875,1,6,0.100,32207.000,0.200,29996.000,0.300,4831.000,0.500,1395.000,1.000,966.000,5.000,1.000
"07/04/06","03:08:14","AMMA06",69294.000,"cc",28331.514,6.00,2833.152,1,6,0.100,32258.000,0.200,29800.000,0.300,4852.000,0.500,1460.000,1.000,923.000,5.000,1.000
"07/04/06","03:08:20","AMMA06",69208.000,"cc",28300.205,6.00,2830.021,1,6,0.100,32108.000,0.200,29808.000,0.300,4892.000,0.500,1456.000,1.000,943.000,5.000,1.000
"07/04/06","03:08:26","AMMA06",69565.000,"cc",28361.211,6.00,2836.121,1,6,0.100,32153.000,0.200,30121.000,0.300,4891.000,0.500,1455.000,1.000,944.000,5.000,1.000
"07/04/06","03:08:32","AMMA06",69176.000,"cc",28293.295,6.00,2829.330,1,6,0.100,31793.000,0.200,30000.000,0.300,4861.000,0.500,1513.000,1.000,1009.000,5.000,0
"07/04/06","03:08:38","AMMA06",68983.000,"cc",28272.065,6.00,2827.207,1,6,0.100,31933.000,0.200,29819.000,0.300,4829.000,0.500,1437.000,1.000,961.000,5.000,4.000
"07/04/06","03:08:44","AMMA06",69495.000,"cc",28343.305,6.00,2834.331,1,6,0.100,32183.000,0.200,30003.000,0.300,5004.000,0.500,1353.000,1.000,951.000,5.000,1.000
"07/04/06","03:08:50","AMMA06",68853.000,"cc",28303.340,6.00,2830.334,1,6,0.100,31618.000,0.200,29884.000,0.300,4977.000,0.500,1379.000,1.000,993.000,5.000,2.000
"07/04/06","03:08:56","AMMA06",69630.000,"cc",28299.430,6.00,2829.943,1,6,0.100,31776.000,0.200,30420.000,0.300,5026.000,0.500,1459.000,1.000,948.000,5.000,1.000
"07/04/06","03:09:02","AMMA06",68840.000,"cc",28368.125,6.00,2836.813,1,6,0.100,31569.000,0.200,30013.000,0.300,4898.000,0.500,1350.000,1.000,1010.000,5.000,0
"07/04/06","03:09:08","AMMA06",69527.000,"cc",28325.750,6.00,2832.575,1,6,0.100,31955.000,0.200,30140.000,0.300,5012.000,0.500,1465.000,1.000,955.000,5.000,0
"07/04/06","03:09:14","AMMA06",68983.000,"cc",28258.285,6.00,2825.829,1,6,0.100,31324.000,0.200,30313.000,0.300,4949.000,0.500,1444.000,1.000,952.000,5.000,1.000
"07/04/06","03:09:20","AMMA06",69248.000,"cc",28289.732,6.00,2828.973,1,6,0.100,31429.000,0.200,30391.000,0.300,5010.000,0.500,1391.000,1.000,1026.000,5.000,1.000
"07/04/06","03:09:26","AMMA06",68982.000,"cc",28323.856,6.00,2832.386,1,6,0.100,31484.000,0.200,30165.000,0.300,4883.000,0.500,1383.000,1.000,1067.000,5.000,0
"07/04/06","03:09:32","AMMA06",69528.000,"cc",28320.545,6.00,2832.055,1,6,0.100,31616.000,0.200,30300.000,0.300,5151.000,0.500,1464.000,1.000,996.000,5.000,1.000
"07/04/06","03:09:38","AMMA06",69298.000,"cc",28390.613,6.00,2839.062,1,6,0.100,31344.000,0.200,30434.000,0.300,5155.000,0.500,1414.000,1.000,951.000,5.000,0
"07/04/06","03:09:44","AMMA06",69237.000,"cc",28324.488,6.00,2832.449,1,6,0.100,31281.000,0.200,30295.000,0.300,5201.000,0.500,1438.000,1.000,1022.000,5.000,0
"07/04/06","03:09:50","AMMA06",69310.000,"cc",28304.941,6.00,2830.494,1,6,0.100,31441.000,0.200,30218.000,0.300,5172.000,0.500,1519.000,1.000,959.000,5.000,1.000
"07/04/06","03:09:56","AMMA06",68877.000,"cc",28324.746,6.00,2832.475,1,6,0.100,30978.000,0.200,30343.000,0.300,5132.000,0.500,1372.000,1.000,1051.000,5.000,1.000
"07/04/06","03:10:02","AMMA06",69100.000,"cc",28325.570,6.00,2832.557,1,6,0.100,31189.000,0.200,30316.000,0.300,5144.000,0.500,1453.000,1.000,997.000,5.000,1.000
"07/04/06","03:10:08","AMMA06",69247.000,"cc",28286.434,6.00,2828.644,1,6,0.100,31429.000,0.200,30343.000,0.300,5145.000,0.500,1359.000,1.000,969.000,5.000,2.000
"07/04/06","03:10:14","AMMA06",68756.000,"cc",28315.992,6.00,2831.599,1,6,0.100,30959.000,0.200,30346.000,0.300,4993.000,0.500,1466.000,1.000,989.000,5.000,3.000
"07/04/06","03:10:20","AMMA06",69325.000,"cc",28330.049,6.00,2833.005,1,6,0.100,31295.000,0.200,30536.000,0.300,5053.000,0.500,1490.000,1.000,951.000,5.000,0
"07/04/06","03:10:26","AMMA06",69402.000,"cc",28293.135,6.00,2829.314,1,6,0.100,31563.000,0.200,30257.000,0.300,5101.000,0.500,1457.000,1.000,1023.000,5.000,1.000
"07/04/06","03:10:32","AMMA06",69532.000,"cc",28336.201,6.00,2833.620,1,6,0.100,31413.000,0.200,30602.000,0.300,5098.000,0.500,1415.000,1.000,1003.000,5.000,1.000
"07/04/06","03:10:38","AMMA06",68922.000,"cc",28365.463,6.00,2836.546,1,6,0.100,31236.000,0.200,30264.000,0.300,5081.000,0.500,1405.000,1.000,934.000,5.000,2.000
"07/04/06","03:10:44","AMMA06",69362.000,"cc",28318.232,6.00,2831.824,1,6,0.100,31493.000,0.200,30468.000,0.300,5052.000,0.500,1374.000,1.000,974.000,5.000,1.000
"07/04/06","03:10:50","AMMA06",69454.000,"cc",28310.232,6.00,2831.023,1,6,0.100,31536.000,0.200,30417.000,0.300,5069.000,0.500,1461.000,1.000,968.000,5.000,3.000
"07/04/06","03:10:56","AMMA06",68875.000,"cc",28223.842,6.00,2822.384,1,6,0.100,31187.000,0.200,30156.000,0.300,5116.000,0.500,1430.000,1.000,985.000,5.000,1.000
"07/04/06","03:11:02","AMMA06",69033.000,"cc",28395.434,6.00,2839.544,1,6,0.100,31434.000,0.200,30104.000,0.300,5051.000,0.500,1464.000,1.000,980.000,5.000,0
"07/04/06","03:11:08","AMMA06",69494.000,"cc",28302.664,6.00,2830.267,1,6,0.100,31633.000,0.200,30329.000,0.300,5154.000,0.500,1429.000,1.000,948.000,5.000,1.000
"07/04/06","03:11:14","AMMA06",69019.000,"cc",28336.522,6.00,2833.652,1,6,0.100,31353.000,0.200,30177.000,0.300,5095.000,0.500,1424.000,1.000,970.000,5.000,0
"07/04/06","03:11:20","AMMA06",69150.000,"cc",28339.832,6.00,2833.983,1,6,0.100,31362.000,0.200,30210.000,0.300,5129.000,0.500,1462.000,1.000,986.000,5.000,1.000
"07/04/06","03:11:26","AMMA06",69147.000,"cc",28297.588,6.00,2829.759,1,6,0.100,31473.000,0.200,30324.000,0.300,5067.000,0.500,1375.000,1.000,908.000,5.000,0
"07/04/06","03:11:32","AMMA06",69231.000,"cc",28328.369,6.00,2832.837,1,6,0.100,31342.000,0.200,30323.000,0.300,5155.000,0.500,1426.000,1.000,984.000,5.000,1.000
"07/04/06","03:11:38","AMMA06",69668.000,"cc",28313.721,6.00,2831.372,1,6,0.100,31476.000,0.200,30575.000,0.300,5093.000,0.500,1516.000,1.000,1007.000,5.000,1.000
"07/04/06","03:11:44","AMMA06",69292.000,"cc",28265.926,6.00,2826.593,1,6,0.100,31147.000,0.200,30381.000,0.300,5285.000,0.500,1488.000,1.000,990.000,5.000,1.000
"07/04/06","03:11:50","AMMA06",69070.000,"cc",28328.291,6.00,2832.829,1,6,0.100,31094.000,0.200,30449.000,0.300,5117.000,0.500,1414.000,1.000,996.000,5.000,0
"07/04/06","03:11:56","AMMA06",68652.000,"cc",28298.920,6.00,2829.892,1,6,0.100,30944.000,0.200,30013.000,0.300,5141.000,0.500,1504.000,1.000,1050.000,5.000,0
"07/04/06","03:12:02","AMMA06",69266.000,"cc",28335.684,6.00,2833.569,1,6,0.100,31205.000,0.200,30505.000,0.300,5225.000,0.500,1414.000,1.000,917.000,5.000,0
"07/04/06","03:12:08","AMMA06",68888.000,"cc",28357.799,6.00,2835.780,1,6,0.100,31218.000,0.200,30017.000,0.300,5174.000,0.500,1443.000,1.000,1035.000,5.000,1.000
"07/04/06","03:12:14","AMMA06",69223.000,"cc",28263.795,6.00,2826.380,1,6,0.100,31342.000,0.200,30230.000,0.300,5287.000,0.500,1388.000,1.000,976.000,5.000,0
"07/04/06","03:12:20","AMMA06",69056.000,"cc",28329.275,6.00,2832.928,1,6,0.100,30911.000,0.200,30442.000,0.300,5301.000,0.500,1440.000,1.000,960.000,5.000,2.000
"07/04/06","03:12:26","AMMA06",69654.000,"cc",28368.438,6.00,2836.844,1,6,0.100,31460.000,0.200,30574.000,0.300,5269.000,0.500,1360.000,1.000,990.000,5.000,1.000
"07/04/06","03:12:32","AMMA06",69408.000,"cc",28318.795,6.00,2831.880,1,6,0.100,31293.000,0.200,30404.000,0.300,5298.000,0.500,1468.000,1.000,944.000,5.000,1.000
"07/04/06","03:12:38","AMMA06",69393.000,"cc",28290.281,6.00,2829.028,1,6,0.100,31380.000,0.200,30385.000,0.300,5315.000,0.500,1369.000,1.000,943.000,5.000,1.000
"07/04/06","03:12:44","AMMA06",69127.000,"cc",28225.779,6.00,2822.578,1,6,0.100,30987.000,0.200,30449.000,0.300,5281.000,0.500,1428.000,1.000,981.000,5.000,1.000
"07/04/06","03:12:50","AMMA06",68975.000,"cc",28405.221,6.00,2840.522,1,6,0.100,30950.000,0.200,30388.000,0.300,5251.000,0.500,1391.000,1.000,995.000,5.000,0
"07/04/06","03:12:56","AMMA06",68771.000,"cc",28322.330,6.00,2832.233,1,6,0.100,30799.000,0.200,30314.000,0.300,5229.000,0.500,1476.000,1.000,953.000,5.000,0
"07/04/06","03:13:02","AMMA06",68474.000,"cc",28283.436,6.00,2828.344,1,6,0.100,31008.000,0.200,29892.000,0.300,5121.000,0.500,1435.000,1.000,1018.000,5.000,0
"07/04/06","03:13:08","AMMA06",68792.000,"cc",28357.695,6.00,2835.770,1,6,0.100,31082.000,0.200,29951.000,0.300,5261.000,0.500,1490.000,1.000,1007.000,5.000,1.000
"07/04/06","03:13:14","AMMA06",69360.000,"cc",28268.090,6.00,2826.809,1,6,0.100,31106.000,0.200,30643.000,0.300,5253.000,0.500,1371.000,1.000,987.000,5.000,0
"07/04/06","03:13:20","AMMA06",68660.000,"cc",28303.490,6.00,2830.349,1,6,0.100,30791.000,0.200,30059.000,0.300,5290.000,0.500,1490.000,1.000,1028.000,5.000,2.000
"07/04/06","03:13:26","AMMA06",69377.000,"cc",28416.752,6.00,2841.675,1,6,0.100,31262.000,0.200,30519.000,0.300,5210.000,0.500,1430.000,1.000,956.000,5.000,0
"07/04/06","03:13:32","AMMA06",68582.000,"cc",28298.266,6.00,2829.827,1,6,0.100,31017.000,0.200,29972.000,0.300,5118.000,0.500,1460.000,1.000,1015.000,5.000,0
"07/04/06","03:13:38","AMMA06",69238.000,"cc",28271.377,6.00,2827.138,1,6,0.100,31232.000,0.200,30250.000,0.300,5316.000,0.500,1448.000,1.000,990.000,5.000,2.000
"07/04/06","03:13:44","AMMA06",69190.000,"cc",28357.047,6.00,2835.705,1,6,0.100,31356.000,0.200,30233.000,0.300,5206.000,0.500,1441.000,1.000,954.000,5.000,0
"07/04/06","03:13:50","AMMA06",68647.000,"cc",28295.951,6.00,2829.595,1,6,0.100,30943.000,0.200,30232.000,0.300,5143.000,0.500,1362.000,1.000,966.000,5.000,1.000
"07/04/06","03:13:56","AMMA06",69240.000,"cc",28282.563,6.00,2828.256,1,6,0.100,31585.000,0.200,30166.000,0.300,5101.000,0.500,1414.000,1.000,974.000,5.000,0